COSMOS 1929

Satellite information

Favourite Embed

Satellite Type and Status

PAYLOADIN ORBIT

Key statistics

Satellite COSMOS 1929 at a glance.

Uptime

13797

Days in orbit

Revolutions

≈ 12.5

Per day

Orbit

LEO

Low Earth Orbit

Inclination

74.0

Latest

Satellite identification and parameters

Extended collection of information and parameters for COSMOS 1929.

Object identification

Identified? True

Debris? False

Object name: COSMOS 1929

International designator: 1988-016F

Object number (NORAD): 18942

Object ID (CCSDS): 18942

Country: COMMONWEALTH OF INDEPENDENT STATES (CIS)

Current information (Y/N): Y

RCS size: MEDIUM

Orbital parameters

Period: 114.759 minutes

Inclination: 74.0065 deg

SMA: 7822.599 km

Apoapsis: 1459.538 km

Periapsis: 1429.39 km

RAAN: 18.5234 deg

Eccentricy: 0.00192698

Argument of periapsis: 73.1579 deg

Mean anomaly: 37.9166 deg

Mean motion: 12.54804833 rev/day

Mean motion (dot): -0.00000001 rev/day2

B* drag term: 0.000090453145 1/REarth

Two-line elements (TLE)

Creation date: Dec. 19, 2025, 2:08 a.m.

Reference frame: TEME

Reference center: EARTH

Epoch: Dec. 18, 2025, 7:34 p.m. UTC

TLE line 0: 0 COSMOS 1929

TLE line 1: 1 18942U 88016F 25352.81559358 -.00000001 00000-0 90453-4 0 9995

TLE line 2: 2 18942 74.0065 18.5234 0019270 73.1579 37.9166 12.54804833730260

Live tracking on map

Real-time ground track for satellite COSMOS 1929.

In-orbit conjunctions

There are no conjunctions computed for COSMOS 1929, at the moment. Check back to stay up to date, as we update our databases every day.

Go to all conjunctions

Associated space launch

Military communications satellites

COSMOS 1929 was lifted into orbit during the mission ‘Kosmos-3M | Strela-1M 329-336’, on board a Kosmos-3M space rocket.

The launch took place on March 11, 1988, 12:18 a.m. from 132/1 (132L).

For more information about the launch, click the button.

Launch to space Kosmos-3M | Strela-1M 329-336
Kosmos-3M | Strela-1M 329-336

Agency: N/A

Status: Launch Successful

Launch date: March 11, 1988, 12:18 a.m. UTC

Rocket: Kosmos-3M

Launch pad: 132/1 (132L)

Location: Plesetsk Cosmodrome, Russian Federation

...

Latest news about this satellite

There are no fresh news available about this satellite. Check back as we update our databases every day.


Newsletter sign-up

Weekly statistics, charts and insights to help you stay on top of the space industry.